This is the latest recevied weather packets stored in our database for station/object KJ6APE. If no packets are shown the sender has not sent any weather packets the latest 10 day(s).
| Time | Temp. | Humidity | Pressure | Rain* | Wind** | Luminosity | Snow |
|---|---|---|---|---|---|---|---|
| 1778092895 | 22.22° C | 54% | 1020.3 hPa | 0 mm | - | 921 W/m² | - |
| 1778092592 | 21.67° C | 57% | 1020.5 hPa | 0 mm | - | 911 W/m² | - |
| 1778092288 | 21.67° C | 54% | 1020.6 hPa | 0 mm | - | 886 W/m² | - |
| 1778091986 | 21.11° C | 55% | 1020.4 hPa | 0 mm | - | 870 W/m² | - |
| 1778091682 | 21.11° C | 57% | 1020.6 hPa | 0 mm | - | 860 W/m² | - |
| 1778091380 | 21.11° C | 56% | 1020.5 hPa | 0 mm | - | 853 W/m² | - |
| 1778091077 | 21.11° C | 56% | 1020.7 hPa | 0 mm | - | 838 W/m² | - |
| 1778090774 | 21.67° C | 54% | 1020.6 hPa | 0 mm | - | 827 W/m² | - |
| 1778090470 | 21.67° C | 55% | 1020.6 hPa | 0 mm | - | 813 W/m² | - |
| 1778090167 | 21.11° C | 57% | 1020.6 hPa | 0 mm | - | 798 W/m² | - |
| 1778089863 | 20.56° C | 57% | 1020.7 hPa | 0 mm | - | 787 W/m² | - |
| 1778089562 | 20.56° C | 58% | 1020.6 hPa | 0 mm | - | 770 W/m² | - |
| 1778089257 | 20.56° C | 59% | 1020.6 hPa | 0 mm | - | 755 W/m² | - |
| 1778088955 | 20° C | 61% | 1020.7 hPa | 0 mm | - | 745 W/m² | - |
| 1778088652 | 20° C | 59% | 1020.7 hPa | 0 mm | - | 728 W/m² | - |
| 1778088349 | 20° C | 59% | 1020.8 hPa | 0 mm | - | 714 W/m² | - |
| 1778088045 | 20° C | 58% | 1020.7 hPa | 0 mm | - | 697 W/m² | - |
| 1778087743 | 20° C | 59% | 1020.7 hPa | 0 mm | - | 682 W/m² | - |
| 1778087441 | 20° C | 59% | 1020.6 hPa | 0 mm | - | 663 W/m² | - |
| 1778087138 | 19.44° C | 59% | 1020.9 hPa | 0 mm | - | 650 W/m² | - |
| 1778086835 | 19.44° C | 60% | 1020.7 hPa | 0 mm | - | 629 W/m² | - |
| 1778086534 | 19.44° C | 61% | 1020.7 hPa | 0 mm | - | 615 W/m² | - |
| 1778086230 | 18.89° C | 63% | 1020.9 hPa | 0 mm | - | 593 W/m² | - |
| 1778085927 | 18.33° C | 65% | 1020.5 hPa | 0 mm | - | 577 W/m² | - |
| 1778085624 | 18.33° C | 64% | 1020.8 hPa | 0 mm | - | 556 W/m² | - |
* Rain latest hour (hover to see other rain measurements)
** Current wind speed in m/s (hover to see current wind gust speed)